TimeCST,TemperatureF,Dew PointF,Humidity,Sea Level PressureIn,VisibilityMPH,Wind Direction,Wind SpeedMPH,Gust SpeedMPH,PrecipitationIn,Events,Conditions,WindDirDegrees,DateUTC
12:56 AM,68.0,68.0,100,29.98,7.0,SE,13.8,-,N/A,,Overcast,140,2013-12-21 06:56:00
1:56 AM,69.1,69.1,100,29.98,6.0,SE,13.8,-,0.00,,Overcast,140,2013-12-21 07:56:00
2:56 AM,68.0,68.0,100,29.96,5.0,SSE,10.4,-,N/A,,Overcast,160,2013-12-21 08:56:00
3:56 AM,69.1,69.1,100,29.95,7.0,SSE,13.8,-,N/A,,Overcast,150,2013-12-21 09:56:00
4:14 AM,69.1,69.1,100,29.94,8.0,SSE,13.8,-,N/A,,Overcast,150,2013-12-21 10:14:00
4:56 AM,70.0,69.1,97,29.94,10.0,SSE,13.8,-,N/A,,Overcast,160,2013-12-21 10:56:00
5:35 AM,70.0,69.1,97,29.94,10.0,South,11.5,-,N/A,,Overcast,170,2013-12-21 11:35:00
5:56 AM,70.0,69.1,97,29.92,6.0,SSE,16.1,23.0,N/A,,Overcast,160,2013-12-21 11:56:00
6:56 AM,71.1,70.0,96,29.93,6.0,SSE,17.3,24.2,N/A,,Overcast,160,2013-12-21 12:56:00
7:56 AM,71.1,70.0,96,29.93,5.0,South,17.3,25.3,N/A,,Overcast,170,2013-12-21 13:56:00
8:56 AM,72.0,70.0,93,29.93,6.0,South,16.1,24.2,N/A,,Overcast,170,2013-12-21 14:56:00
9:24 AM,73.0,70.0,90,29.94,6.0,SSE,20.7,28.8,N/A,,Overcast,160,2013-12-21 15:24:00
9:56 AM,73.9,70.0,87,29.93,6.0,SSE,15.0,26.5,N/A,,Overcast,160,2013-12-21 15:56:00
10:39 AM,75.0,70.0,84,29.92,7.0,South,21.9,36.8,N/A,,Overcast,170,2013-12-21 16:39:00
10:56 AM,73.9,71.1,91,29.91,6.0,South,20.7,29.9,N/A,,Overcast,170,2013-12-21 16:56:00
11:24 AM,73.9,71.1,91,29.91,6.0,South,18.4,32.2,N/A,,Overcast,170,2013-12-21 17:24:00
11:56 AM,73.9,71.1,91,29.89,6.0,SSE,18.4,32.2,N/A,,Overcast,160,2013-12-21 17:56:00
12:56 PM,75.0,70.0,84,29.87,7.0,South,19.6,29.9,N/A,,Overcast,170,2013-12-21 18:56:00
1:38 PM,75.0,71.1,87,29.87,7.0,South,19.6,28.8,N/A,,Overcast,170,2013-12-21 19:38:00
1:52 PM,75.2,71.6,89,29.86,7.0,SSE,18.4,24.2,N/A,,Overcast,160,2013-12-21 19:52:00
1:56 PM,75.0,71.1,87,29.86,7.0,SSE,16.1,24.2,N/A,,Overcast,160,2013-12-21 19:56:00
2:56 PM,73.9,71.1,91,29.86,9.0,South,16.1,26.5,0.00,,Overcast,170,2013-12-21 20:56:00
3:56 PM,73.9,71.1,91,29.86,10.0,SSE,15.0,26.5,N/A,,Overcast,160,2013-12-21 21:56:00
4:56 PM,72.0,70.0,93,29.86,8.0,SSE,17.3,23.0,N/A,,Overcast,150,2013-12-21 22:56:00
5:29 PM,72.0,70.0,93,29.88,9.0,SSE,12.7,-,N/A,,Overcast,150,2013-12-21 23:29:00
5:56 PM,72.0,70.0,93,29.87,9.0,SSE,15.0,-,N/A,,Overcast,150,2013-12-21 23:56:00
6:10 PM,72.0,70.0,93,29.88,9.0,SSE,15.0,24.2,N/A,,Overcast,160,2013-12-22 00:10:00
6:19 PM,72.0,70.0,93,29.88,9.0,SSE,12.7,21.9,N/A,,Overcast,150,2013-12-22 00:19:00
6:56 PM,72.0,70.0,93,29.88,10.0,SSE,15.0,-,N/A,,Overcast,160,2013-12-22 00:56:00
7:32 PM,72.0,70.0,93,29.89,10.0,SSE,18.4,25.3,N/A,,Overcast,160,2013-12-22 01:32:00
7:56 PM,72.0,70.0,93,29.89,10.0,SSE,23.0,32.2,N/A,,Overcast,160,2013-12-22 01:56:00
8:56 PM,72.0,70.0,93,29.88,10.0,SSE,17.3,29.9,N/A,,Overcast,160,2013-12-22 02:56:00
9:56 PM,73.0,70.0,90,29.89,10.0,South,18.4,26.5,N/A,,Overcast,170,2013-12-22 03:56:00
10:56 PM,73.0,71.1,93,29.90,10.0,South,11.5,-,N/A,,Overcast,170,2013-12-22 04:56:00
11:56 PM,72.0,71.1,97,29.88,10.0,South,17.3,29.9,0.01,,Overcast,170,2013-12-22 05:56:00